Location: Fort Worth, Tx
(32.7431°N, 97.3695°W)
Time: 13:30:43
(UTC-05:00)

ISS - Visible Passes

Search period start: 23 February 2018 00:00
Search period end: 05 March 2018 00:00
Orbit: 402 x 407 km, 51.6° (Epoch: 24 February)

Date Brightness Start Highest point End Pass type
(mag) Time Alt. Az. Time Alt. Az. Time Alt. Az.
23 Feb -1.3 07:29:57 10° S 07:32:37 23° SE 07:35:17 10° ENE visible
24 Feb -0.5 06:39:40 10° SE 06:40:36 11° SE 06:41:32 10° ESE visible
25 Feb -3.6 07:21:16 10° SW 07:24:30 74° SE 07:27:47 10° NE visible
26 Feb -2.1 06:30:41 19° S 06:32:23 31° SE 06:35:19 10° ENE visible
27 Feb -0.5 05:41:25 13° ESE 05:41:25 13° ESE 05:42:11 10° E visible
27 Feb -3.1 07:14:08 15° WSW 07:16:31 36° NW 07:19:36 10° NNE visible
28 Feb -3.7 06:24:36 67° NNE 06:24:36 67° NNE 06:27:31 10° NE visible
01 Mar -0.4 05:34:54 12° ENE 05:34:54 12° ENE 05:35:09 10° ENE visible
01 Mar -1.9 07:07:34 14° WNW 07:08:39 16° NNW 07:10:50 10° N visible
02 Mar -1.8 06:17:42 20° N 06:17:42 20° N 06:19:08 10° NNE visible
